STARLINK-35475

Last updated on Mon Oct 20 2025 00:02:07 GMT+0000 (Coordinated Universal Time)

1 65865U 25223M 25292.25002315 -.01912164 00000+0 -21856-1 0 9990 2 65865 53.1597 234.9693 0001227 84.6934 27.9000 15.64693845 3736
UTC large
Height (km)
Speed (km/s)
/
Latitude / Longitude
Inclination (degrees)
Orbital Period (minutes)
Azimuth
Elevation
Range (km)
Doppler Factor

Next 0 passes for location: London (51.5072 / 0.1276)

Sorry there are no passes over London.